Home > Weather > Rae-Edzo > Past weeks

Flag for Canada Past Weather in Rae-Edzo, Northwest Territories, Canada — Yesterday and Last 2 Weeks

Now
54 °F

Cool.


Feels Like: 53 °F
Forecast: 38 / 58 °F
Wind: 6 mph from Southeast

Location: Lac La Martre

Current Time: May 25, 2016 at 12:57:06 PM

Latest Report: May 25, 2016 at 12:00 PM


Visibility: N/A

Pressure: 30.08 "Hg

Humidity: 39%

Dew Point: 30 °F

Location of Rae-EdzoLocation

Past Weather in Rae-Edzo — Graph

°F

Rae-Edzo Temperature Yesterday

Maximum temperature yesterday: 51 °F (at 3:00 PM)
Minimum temperature yesterday: 35 °F (at 3:00 AM)
Average temperature yesterday: 43 °F

High & Low Weather Summary for the Past Weeks

 TemperatureHumidityPressure
High76 °F (May 15, 2:00 PM)100% (May 11, 4:00 AM)30.56 "Hg (May 11, 4:00 AM)
Low24 °F (May 11, 5:00 AM)18% (May 13, 4:00 PM)29.67 "Hg (May 22, 5:00 PM)
Average47 °F57%30.14 "Hg
* Reported May 10 11:00 AM — May 25 11:00 AM, Rae-Edzo, Weather by CustomWeather, © 2016

Note: Actual official high and low records may vary slightly from our data, if they occured in-between our weather recording intervals... More about our weather records

Advertising

Rae-Edzo Weather History for the Previous 24 Hours

Scroll right to see more
 ConditionsComfort  
Time TempWeatherWind HumidityBarometerVisibility
11:00 AM
Wed, May 25
52 °FCool.6 mph43%30.08 "HgN/A
10:00 AM50 °FCool.7 mph47%30.08 "HgN/A
9:00 AM49 °FCool.6 mph50%30.07 "HgN/A
8:00 AM47 °FCool.5 mph55%30.07 "HgN/A
7:00 AM44 °FQuite cool.5 mph60%30.06 "HgN/A
6:00 AM42 °FQuite cool.3 mph71%30.06 "HgN/A
5:00 AM42 °FQuite cool.3 mph76%30.05 "HgN/A
3:00 AM43 °FQuite cool.2 mph64%30.03 "HgN/A
2:00 AM43 °FQuite cool.2 mph68%30.02 "HgN/A
1:00 AM44 °FQuite cool.3 mph71%30.01 "HgN/A
12:00 AM45 °FQuite cool.5 mph66%30.01 "HgN/A
11:00 PM
Tue, May 24
45 °FQuite cool.3 mph65%30.00 "HgN/A
10:00 PM45 °FCool.7 mph64%29.99 "HgN/A
9:00 PM46 °FCool.6 mph63%29.98 "HgN/A
8:00 PM47 °FCool.8 mph62%29.97 "HgN/A
7:00 PM49 °FCool.8 mph58%29.96 "HgN/A
6:00 PM49 °FCool.8 mph60%29.96 "HgN/A
5:00 PM49 °FCool.8 mph55%29.96 "HgN/A
4:00 PM51 °FCool.8 mph56%29.95 "HgN/A
3:00 PM51 °FCool.8 mph55%29.94 "HgN/A
2:00 PM49 °FCool.6 mph61%29.94 "HgN/A
1:00 PM47 °FCool.9 mph65%29.93 "HgN/A
12:00 PM46 °FCool.10 mph67%29.93 "HgN/A
Weather by CustomWeather, © 2016

See weather overviewHow to use our weather pages